sat.trackr.live / text

‹ back to catalog

SAUDISAT 5A

NORAD 43831 · 2018-102A

PAYLOAD ACTIVE UNKNOWN

§ Identity

Operator
Country
SAUD
Launch date
2018-12-07
Launch site
JSC
Launch vehicle
Mass (kg)
RCS (m²)

Purposes: earth_obs

External: N2YO · Heavens-Above · Gunter

§ Orbital elements

Epoch: 2026-05-25T04:15:40.624992Z

Period
94.25 min
Inclination
97.3080°
Eccentricity
0.0008955
Mean motion
15.27771638 rev/d
Perigee alt
476.3 km
Apogee alt
488.6 km
Semi-major
6,860.6 km
B*
1.8726e-4
RAAN
207.2046°
Arg perigee
206.0053°
Mean anomaly
154.0738°
Rev number
41,216

§ Raw data

SAUDISAT 5A1 43831U 18102A   26145.17755353  .00005011  00000+0  18726-3 0  99982 43831  97.3080 207.2046 0008955 206.0053 154.0738 15.27771638412161

JSON: /api/v1/satellites/43831 · /tle

For live sub-satellite position, see the globe view (requires WebGL).

§ Visibility from observer

Set your observer location to see the next 7 days of passes ≥ 10°. The values pass through the URL so the page stays shareable.

No JS? Fill the form by hand. The geolocation button needs JavaScript.

§ Radio — SatNOGS DB

ModeDescriptionDownlinkUplink
FM 401.35 401.350 MHz
FM 401.85 401.850 MHz

2 transmitters · refreshed weekly from db.satnogs.org